User: anonymous   Login
Location: Brachbach
(49.1847°N, 9.7240°E)
Time: 09:12:49
(UTC+00:00)
Language:

SL-16 R/B - Orbit

View from above orbital plane
View from above orbital plane
View from above satellite
View from above satellite

Ground track
Ground track

The orbit data is extracted from the following two-line orbital elements,

1 27006U 01056F   24197.94878247 -.00000013  00000-0  37002-4 0  9990
2 27006  99.6895 345.3363 0015361  93.9849  14.3229 13.71033924130736
Epoch (UTC): 15 July 2024 22:46:14
Eccentricity: 0.0015361
inclination: 99.6895°
perigee height: 984 km
apogee height: 1007 km
right ascension of ascending node: 345.3363°
argument of perigee: 93.9849°
revolutions per day: 13.71033924
mean anomaly at epoch: 14.3229°
orbit number at epoch: 13073

The dashed part of the orbit path shows where the satellite is in the earth's shadow,  

DLR